This is the latest recevied weather packets stored in our database for station/object IZ1UQG-2. If no packets are shown the sender has not sent any weather packets the latest 10 day(s).
| Time | Temp. | Humidity | Pressure | Rain* | Wind** | Luminosity | Snow |
|---|---|---|---|---|---|---|---|
| 1777719785 | 20° C | 43% | 1022.2 hPa | 0 mm | - | 809 W/m² | - |
| 1777719305 | 19.44° C | 44% | 1022.4 hPa | 0 mm | - | 809 W/m² | - |
| 1777719125 | 19.44° C | 44% | 1022.6 hPa | 0 mm | - | 809 W/m² | - |
| 1777718464 | 19.44° C | 44% | 1022.7 hPa | 0 mm | - | 793 W/m² | - |
| 1777718344 | 18.89° C | 45% | 1022.8 hPa | 0 mm | - | 786 W/m² | - |
| 1777717085 | 19.44° C | 47% | 1023.1 hPa | 0 mm | - | 779 W/m² | - |
| 1777717024 | 19.44° C | 47% | 1023.2 hPa | 0 mm | - | 772 W/m² | - |
| 1777716844 | 19.44° C | 47% | 1023.1 hPa | 0 mm | - | 763 W/m² | - |
| 1777716304 | 19.44° C | 46% | 1023.2 hPa | 0 mm | - | 740 W/m² | - |
| 1777715824 | 18.89° C | 47% | 1023.4 hPa | 0 mm | - | 723 W/m² | - |
| 1777715464 | 18.89° C | 45% | 1023.5 hPa | 0 mm | - | 677 W/m² | - |
| 1777715405 | 18.89° C | 45% | 1023.5 hPa | 0 mm | - | 687 W/m² | - |
| 1777715164 | 18.33° C | 45% | 1023.6 hPa | 0 mm | - | 715 W/m² | - |
| 1777714985 | 18.89° C | 45% | 1023.5 hPa | 0 mm | - | 701 W/m² | - |
| 1777714805 | 18.33° C | 45% | 1023.6 hPa | 0 mm | - | 686 W/m² | - |
| 1777714204 | 17.78° C | 48% | 1023.9 hPa | 0 mm | - | 714 W/m² | - |
| 1777714031 | 17.78° C | 49% | 1023.8 hPa | 0 mm | - | 694 W/m² | - |
| 1777713786 | 18.33° C | 50% | 1023.9 hPa | 0 mm | - | 691 W/m² | - |
| 1777713484 | 17.78° C | 51% | 1024.1 hPa | 0 mm | - | 682 W/m² | - |
| 1777713244 | 17.78° C | 52% | 1024 hPa | 0 mm | - | 689 W/m² | - |
| 1777712884 | 17.78° C | 52% | 1024.1 hPa | 0 mm | - | 663 W/m² | - |
| 1777712764 | 17.78° C | 52% | 1024.2 hPa | 0 mm | - | 659 W/m² | - |
| 1777712405 | 17.22° C | 56% | 1024.3 hPa | 0 mm | - | 650 W/m² | - |
| 1777712344 | 17.22° C | 57% | 1024.4 hPa | 0 mm | - | 647 W/m² | - |
| 1777711385 | 17.22° C | 59% | 1024.3 hPa | 0 mm | - | 635 W/m² | - |
* Rain latest hour (hover to see other rain measurements)
** Current wind speed in m/s (hover to see current wind gust speed)